Location: Assche-ter-Heiden
(50.9174°N, 4.1574°E)
Time: 23:27:59
(UTC+00:00)

Cosmos 1703 - Pass Details

Date: 20 January 2020
Orbit: 524 x 541 km, 82.5° (Epoch: 23 February)

Event Time Altitude Azimuth Distance (km) Brightness Sun altitude
Exits shadow 06:37:52 - 334° (NNW) 2,272 6.0 -9.0°
Reaches altitude 10° 06:39:11 10° 325° (NW) 1,811 5.5 -8.8°
Maximum altitude 06:42:22 24° 272° (W) 1,160 4.4 -8.3°
Drops below altitude 10° 06:45:32 10° 218° (SW) 1,791 5.8 -7.9°
Sets 06:47:57 0° 204° (SSW) 2,673 6.8 -7.5°
